Probability
0 0 0 0 0 0 0 0 0 0 0 0 0 0 0 0 0 0 0 0 0 0 0 0 0 0 0 0 0 0 0 0 0 0 0 0 0 0 0 0 0 0 0
0 0 0 0 0 0 0 0 0 0 0 0 0 0 0 0 0 0 0 0 0 0 0 0 0 0 0 0 0 0 0 0 0 0 0 0 0 0 0 0 0 0 0
0 0 0 0 0 0 0 0 0 0 0 0 0 0 0 0 0 0 0 0 0 0 3 0 0 0 0 0 0 0 0 0 0 0 0 0 0 0 0 0 0 0 0
0 0 0 0 0 0 0 0 0 0 0 0 0 0 0 0 0 0 0 0 0 3 3 0 0 0 0 0 0 0 0 0 0 0 0 0 0 0 0 0 0 0 0
0 0 0 0 0 0 0 0 0 0 0 0 0 0 0 0 0 0 0 0 0 0 0 0 0 0 0 0 0 0 0 0 0 0 0 0 0 0 0 0 0 0 0
0 0 0 0 0 0 0 0 0 0 0 0 0 0 0 0 0 0 0 0 0 0 0 0 0 0 0 0 0 0 0 0 0 0 0 0 0 0 0 0 0 0 0
0 0 0 0 0 0 0 0 0 0 0 0 0 0 0 0 0 0 0 0 0 0 0 0 0 0 0 0 0 0 0 0 0 0 0 0 0 0 0 0 0 0 0
0 0 0 0 0 0 0 0 0 0 0 0 0 0 0 0 0 0 0 0 0 0 0 0 0 0 0 0 0 0 0 0 0 0 0 0 0 0 0 0 0 0 0
0 0 0 0 0 0 0 0 0 0 0 0 0 0 0 0 0 0 0 0 0 0 0 0 0 0 0 0 0 0 0 0 0 0 0 3 3 0 0 0 0 0 0
0 0 0 0 0 0 0 0 0 0 0 0 0 0 0 0 0 0 0 0 0 0 0 0 0 0 0 0 0 0 0 0 0 0 0 0 3 0 0 0 0 0 0
0 0 0 0 0 0 0 0 0 0 0 0 0 0 0 0 0 0 0 0 0 0 0 0 0 0 0 0 0 0 0 0 0 0 0 0 0 0 0 0 0 0 0
0 0 0 0 0 0 0 0 0 0 0 0 0 0 0 0 0 0 0 0 0 0 0 0 0 0 0 0 0 0 0 0 0 0 0 0 0 0 0 0 0 0 0
0 0 0 0 0 0 0 0 0 0 0 0 0 0 0 0 0 0 0 0 0 0 0 0 0 0 0 0 0 0 0 0 0 0 0 0 0 0 0 0 0 0 0
0 0 0 0 0 0 0 0 0 0 0 0 0 0 0 0 0 0 0 0 0 0 0 0 0 0 0 0 0 0 0 0 0 0 0 0 0 0 0 0 0 0 0
0 0 0 0 0 0 0 0 0 0 0 0 0 0 0 0 0 0 0 0 0 0 0 0 0 0 0 0 0 0 0 0 0 0 0 0 0 0 0 0 0 0 0
0 0 0 0 0 0 0 0 0 0 0 0 0 0 0 0 0 0 0 0 0 0 0 0 0 0 0 0 0 0 0 0 0 0 0 0 0 0 0 0 0 0 0
0 0 0 0 0 0 0 0 0 0 0 0 0 0 0 0 0 0 0 0 0 0 0 0 0 0 0 0 0 0 0 0 0 0 0 0 0 0 0 0 0 0 0
0 0 0 0 0 0 0 0 0 0 0 0 0 0 0 0 0 0 0 0 0 0 0 0 0 0 0 0 0 0 0 0 0 0 0 0 0 0 0 0 0 0 0
0 0 0 0 0 0 0 0 0 0 0 0 0 0 0 0 0 0 0 0 0 0 0 0 0 0 0 0 0 0 0 0 0 0 0 0 0 0 0 0 0 0 0
0 0 0 0 0 0 0 0 0 0 0 0 0 0 0 0 0 0 0 0 0 0 0 0 0 0 0 0 0 0 0 0 0 0 0 0 0 0 0 0 0 0 0
0 0 0 0 0 0 0 0 0 0 0 0 0 0 0 0 0 0 0 0 0 0 0 0 0 0 0 0 0 0 0 0 0 0 0 0 0 0 0 0 0 0 0
0 0 0 0 0 0 0 0 0 0 0 0 0 0 0 0 0 0 0 0 0 0 0 0 0 0 0 0 0 0 0 0 0 0 0 0 0 0 0 0 0 0 0
0 0 0 0 0 0 0 0 0 0 0 0 0 0 0 0 0 0 0 0 0 0 0 0 0 0 0 0 0 0 0 0 0 0 0 0 0 0 0 0 0 0 0
0 0 0 0 0 0 0 0 0 0 0 0 0 0 0 0 0 0 0 0 0 0 0 0 0 0 0 0 0 0 0 0 0 0 0 0 0 0 0 0 0 0 0
0 0 0 0 0 0 0 0 0 0 0 0 0 0 0 0 0 0 0 0 0 0 0 0 0 0 0 0 0 0 0 0 0 0 0 0 0 0 0 0 0 0 0
0 0 0 0 0 0 0 0 0 0 0 0 0 0 0 0 0 0 0 0 0 0 0 0 0 0 0 0 0 0 0 0 0 0 0 0 0 0 0 0 0 0 0
Height
5645 5651 5657 5664 5673 5681 5690 5699 5709 5718 5726 5733 5739 5745 5751 5757 5763 5769 5773 5778 5782 5786 5789 5792 5796 5799 5802 5804 5806 5808 5810 5811 5813 5813 5814 5815 5816 5816 5817 5817 5816 5816 5815
5643 5649 5655 5662 5669 5676 5685 5693 5702 5710 5718 5726 5732 5738 5744 5750 5755 5760 5765 5770 5774 5778 5781 5784 5788 5791 5794 5796 5798 5800 5802 5803 5805 5806 5806 5807 5808 5809 5809 5809 5808 5808 5807
5641 5646 5652 5659 5666 5673 5681 5688 5696 5704 5712 5718 5725 5730 5736 5741 5747 5752 5757 5762 5766 5769 5773 5776 5779 5782 5785 5787 5790 5791 5793 5795 5796 5797 5798 5798 5800 5800 5801 5800 5800 5799 5799
5639 5644 5650 5656 5663 5670 5678 5684 5691 5699 5706 5712 5718 5724 5729 5735 5741 5745 5749 5753 5757 5761 5764 5767 5770 5773 5775 5778 5780 5782 5784 5785 5787 5788 5789 5789 5790 5791 5791 5792 5791 5791 5790
5639 5644 5649 5655 5661 5667 5674 5681 5687 5694 5701 5707 5713 5717 5723 5728 5733 5737 5741 5745 5748 5752 5755 5758 5761 5763 5766 5768 5770 5772 5774 5775 5777 5778 5779 5779 5780 5780 5781 5782 5782 5782 5781
5639 5643 5648 5654 5659 5665 5672 5678 5684 5689 5695 5701 5706 5711 5716 5720 5725 5729 5733 5736 5739 5743 5745 5748 5751 5753 5755 5757 5759 5761 5763 5764 5766 5767 5768 5769 5770 5771 5770 5771 5772 5772 5772
5639 5643 5648 5653 5658 5664 5669 5675 5680 5685 5690 5696 5700 5705 5709 5712 5716 5720 5724 5727 5730 5733 5736 5738 5740 5742 5744 5746 5748 5749 5751 5753 5754 5755 5757 5758 5759 5760 5760 5760 5761 5761 5761
5639 5643 5648 5652 5657 5662 5667 5672 5677 5681 5686 5691 5695 5698 5701 5705 5708 5712 5715 5718 5721 5723 5726 5727 5729 5731 5732 5734 5735 5737 5739 5740 5742 5743 5744 5746 5747 5748 5749 5749 5749 5749 5750
5639 5643 5647 5651 5655 5660 5665 5669 5674 5678 5681 5686 5689 5692 5695 5697 5700 5703 5705 5708 5710 5712 5714 5716 5718 5719 5720 5721 5722 5724 5725 5727 5728 5730 5731 5732 5734 5735 5737 5737 5737 5737 5738
5640 5644 5647 5650 5654 5658 5662 5666 5670 5674 5677 5680 5682 5685 5688 5690 5692 5694 5696 5698 5700 5702 5703 5704 5706 5706 5707 5708 5709 5709 5711 5712 5714 5715 5717 5718 5720 5722 5723 5724 5724 5725 5725
5640 5643 5646 5650 5653 5657 5660 5663 5667 5670 5673 5675 5677 5679 5681 5682 5684 5685 5687 5688 5690 5691 5692 5693 5694 5694 5694 5695 5695 5696 5696 5698 5700 5702 5703 5705 5706 5708 5709 5710 5711 5712 5712
5640 5643 5646 5648 5651 5654 5657 5660 5663 5665 5668 5670 5671 5673 5673 5674 5676 5677 5677 5678 5679 5680 5680 5681 5682 5682 5682 5682 5682 5683 5683 5684 5686 5688 5689 5691 5692 5694 5695 5696 5697 5698 5699
5640 5642 5645 5647 5649 5652 5654 5656 5658 5660 5662 5664 5665 5666 5666 5666 5667 5667 5667 5668 5668 5668 5668 5668 5669 5669 5669 5669 5670 5670 5671 5672 5673 5674 5676 5677 5678 5680 5681 5682 5684 5685 5686
5639 5641 5643 5645 5647 5649 5650 5652 5653 5655 5656 5657 5657 5657 5657 5658 5658 5658 5657 5657 5657 5656 5656 5656 5656 5656 5656 5656 5656 5656 5657 5658 5660 5661 5662 5663 5664 5666 5667 5669 5670 5672 5673
5638 5640 5642 5643 5644 5645 5646 5647 5648 5649 5649 5649 5649 5649 5649 5649 5649 5648 5648 5647 5646 5646 5645 5645 5644 5643 5643 5642 5642 5642 5643 5644 5646 5647 5647 5648 5650 5652 5653 5655 5657 5658 5660
5637 5638 5639 5639 5640 5641 5642 5642 5642 5642 5642 5641 5641 5640 5640 5639 5639 5638 5637 5637 5636 5635 5634 5633 5632 5631 5630 5629 5628 5628 5629 5630 5632 5633 5634 5636 5637 5639 5640 5642 5643 5644 5646
5635 5635 5636 5636 5636 5636 5637 5636 5636 5635 5634 5633 5632 5631 5630 5629 5628 5627 5626 5626 5625 5624 5623 5621 5620 5619 5617 5616 5616 5615 5616 5617 5619 5620 5621 5623 5624 5626 5627 5628 5630 5631 5632
5632 5632 5632 5631 5631 5630 5630 5629 5628 5627 5626 5624 5623 5621 5620 5619 5617 5616 5615 5614 5613 5612 5611 5609 5608 5606 5605 5604 5603 5603 5603 5605 5606 5608 5609 5611 5612 5613 5614 5616 5617 5618 5619
5628 5628 5627 5626 5625 5624 5622 5621 5619 5618 5616 5614 5612 5611 5609 5607 5606 5604 5603 5602 5601 5599 5598 5596 5595 5594 5593 5592 5591 5591 5591 5593 5594 5595 5597 5598 5600 5601 5602 5604 5604 5606 5607
5624 5623 5621 5619 5618 5616 5614 5612 5609 5607 5605 5603 5601 5599 5597 5595 5593 5592 5590 5589 5588 5586 5585 5583 5582 5582 5581 5580 5579 5579 5580 5581 5582 5583 5585 5586 5588 5589 5590 5591 5592 5594 5595
5618 5616 5614 5612 5610 5608 5605 5602 5599 5596 5593 5591 5589 5586 5584 5582 5580 5579 5577 5576 5574 5573 5572 5571 5570 5569 5568 5567 5567 5567 5568 5569 5570 5571 5573 5574 5576 5577 5578 5579 5580 5582 5583
5611 5610 5607 5605 5602 5599 5596 5592 5589 5585 5581 5579 5576 5573 5570 5568 5566 5565 5563 5561 5560 5559 5558 5557 5557 5556 5555 5555 5555 5555 5556 5557 5558 5560 5561 5562 5564 5565 5566 5568 5569 5569 5571
5605 5603 5600 5597 5592 5588 5584 5580 5576 5572 5569 5565 5562 5560 5557 5554 5552 5551 5549 5547 5546 5544 5544 5543 5543 5543 5542 5542 5542 5543 5543 5544 5546 5547 5549 5551 5552 5553 5554 5556 5557 5558 5559
5597 5595 5592 5588 5583 5578 5573 5568 5563 5560 5556 5552 5549 5546 5543 5541 5539 5538 5536 5534 5532 5531 5530 5529 5529 5529 5529 5529 5530 5530 5531 5532 5533 5535 5537 5538 5540 5541 5543 5544 5546 5547 5548
5589 5586 5582 5578 5572 5567 5562 5556 5551 5547 5543 5539 5536 5533 5531 5529 5527 5525 5523 5521 5519 5517 5517 5516 5515 5515 5516 5516 5517 5517 5519 5520 5521 5523 5525 5526 5528 5530 5532 5533 5534 5535 5536
5581 5577 5572 5567 5561 5556 5550 5545 5539 5534 5530 5527 5524 5521 5519 5517 5515 5513 5511 5508 5507 5505 5503 5502 5502 5502 5503 5503 5504 5505 5506 5507 5509 5511 5513 5515 5517 5519 5520 5522 5523 5524 5525
Wind_Speed
33 36 40 44 49 50 51 55 53 51 52 52 50 50 49 48 48 48 46 45 42 42 42 41 40 40 39 37 37 36 36 36 36 36 36 36 36 36 36 36 36 36 36
29 34 38 42 46 49 50 53 52 51 52 51 49 50 49 47 47 47 46 44 43 43 43 42 41 40 40 39 39 39 38 38 37 38 38 38 37 37 37 37 37 38 38
27 30 35 40 43 45 47 49 52 51 50 48 46 46 46 46 45 46 46 45 44 44 44 44 43 42 42 42 41 41 41 40 40 40 40 40 39 38 37 37 38 38 38
22 28 32 35 39 41 43 45 46 47 48 48 45 43 45 45 45 45 45 45 44 45 46 45 44 44 44 43 44 44 43 43 43 42 42 41 41 40 39 39 39 39 39
18 23 28 32 34 37 39 38 39 42 44 45 43 41 43 44 44 45 45 46 45 45 45 45 45 44 45 46 46 45 45 45 45 45 45 44 43 43 42 42 41 41 40
16 19 24 29 31 34 35 35 36 38 40 42 41 40 41 43 42 44 43 43 45 45 45 46 46 47 47 48 48 47 48 48 47 47 46 45 44 45 45 44 43 43 42
14 16 20 24 26 29 30 31 32 34 37 38 38 38 38 41 42 44 45 45 46 46 46 46 47 48 48 48 48 49 49 49 49 49 48 47 47 47 47 46 45 45 44
11 13 17 22 24 25 26 25 26 29 33 35 35 36 36 39 42 43 46 46 46 46 47 47 47 49 50 50 50 51 51 51 51 52 51 49 49 49 48 48 48 47 47
9 11 13 17 19 20 22 24 24 26 30 32 32 34 35 36 38 41 43 43 44 45 46 47 49 50 52 52 53 53 53 53 52 52 52 52 52 52 50 48 49 48 48
7 8 9 12 15 16 17 19 22 24 25 27 27 28 31 33 34 35 38 40 41 43 44 46 47 48 50 52 53 54 54 53 53 53 54 52 52 51 50 49 49 48 46
4 6 7 10 12 14 16 17 18 21 22 24 26 27 28 30 32 33 35 38 40 40 42 43 44 45 47 50 52 53 53 54 54 53 53 53 53 52 50 50 48 47 47
4 6 8 9 10 12 14 16 18 20 21 23 25 26 29 31 32 33 35 38 41 42 44 44 45 47 49 49 50 51 51 51 51 52 52 52 52 51 51 50 49 48 48
4 6 8 9 9 11 13 15 17 20 22 23 25 27 28 30 31 32 34 36 39 41 42 43 44 46 47 47 48 50 50 49 49 49 49 50 50 49 49 48 47 46 46
4 4 7 8 9 10 13 14 16 19 22 24 26 28 28 30 32 33 34 35 35 37 38 40 41 43 44 45 46 47 47 48 48 48 48 48 48 47 48 47 46 45 45
6 7 8 10 11 12 14 16 18 21 22 24 27 28 30 30 31 32 33 34 34 34 34 36 38 40 41 42 44 44 45 46 46 47 46 45 45 45 44 44 44 45 45
7 8 10 12 13 15 17 19 21 23 24 25 27 28 29 31 33 34 34 33 34 35 35 35 36 37 39 40 41 42 43 43 44 43 42 42 42 43 44 44 44 45 45
9 11 13 15 16 17 19 21 22 23 25 26 28 29 30 32 33 33 33 34 35 35 37 38 38 38 38 38 39 39 41 41 41 41 41 41 42 42 43 44 44 44 44
12 14 16 17 19 20 21 22 24 25 27 29 30 31 32 33 33 33 33 34 35 36 37 39 39 39 39 39 39 40 40 40 40 40 40 41 42 44 45 44 44 44 43
15 16 18 20 21 23 24 25 27 29 30 31 33 34 36 36 36 36 35 36 36 37 39 39 39 40 40 40 40 40 39 39 40 40 40 41 42 42 43 44 44 44 44
18 19 21 23 24 25 27 28 30 32 33 34 35 36 38 37 37 37 37 38 38 38 39 39 39 40 40 40 40 40 39 39 39 40 40 41 41 41 42 43 43 44 44
20 22 24 25 26 28 29 31 33 34 35 36 37 38 38 38 38 38 38 39 39 39 39 39 40 39 39 39 39 39 39 38 39 40 41 40 40 41 42 42 42 43 43
22 23 25 28 30 31 32 34 35 36 37 38 39 40 39 39 40 40 40 41 41 41 40 40 40 40 39 38 38 39 39 39 40 40 40 39 40 40 40 40 41 41 41
24 26 28 31 33 34 36 38 38 38 38 39 39 39 39 40 40 41 41 42 42 41 41 41 40 39 39 39 39 39 39 39 39 39 39 39 39 39 39 39 40 40 40
27 29 31 33 35 37 38 39 39 39 39 39 39 39 39 40 40 40 41 41 41 41 40 40 40 39 38 38 38 39 39 39 38 38 38 38 39 39 38 39 39 39 39
29 31 33 35 37 38 38 39 39 39 39 39 39 39 39 39 39 39 40 40 40 40 39 39 38 38 38 38 38 38 38 38 37 37 37 37 37 38 39 39 40 39 39
32 34 35 37 38 38 38 39 39 39 38 38 38 38 38 38 38 38 39 39 39 39 39 38 38 36 36 36 37 38 38 37 37 37 37 37 38 37 37 38 38 38 38
Wind_Direction
213 214 213 210 210 210 210 211 212 213 215 218 221 222 224 226 230 231 234 235 237 240 241 243 245 246 248 249 251 252 255 257 260 261 263 264 266 268 270 272 274 276 278
213 215 214 209 209 210 212 212 214 216 216 218 220 222 224 227 229 231 233 236 239 241 241 243 246 247 248 249 251 253 256 258 260 262 263 265 267 269 272 274 275 276 278
210 213 212 209 210 210 211 212 213 214 217 219 219 221 224 226 230 232 235 237 240 242 242 244 246 248 250 251 252 255 257 259 260 262 264 267 268 270 271 272 274 276 278
210 214 213 211 211 211 212 213 212 215 218 220 222 225 226 227 230 235 237 238 242 244 245 246 247 249 250 251 253 255 258 259 261 263 265 267 268 269 270 271 273 276 278
209 213 216 213 212 212 211 212 214 218 220 222 223 225 226 228 232 236 237 239 242 245 247 248 249 251 252 254 255 257 259 261 262 263 264 265 267 268 270 271 272 274 276
215 215 216 216 215 213 211 215 220 222 223 223 226 230 232 231 232 237 241 244 245 247 250 251 251 252 254 255 257 258 260 262 263 263 264 265 266 267 269 270 271 272 274
216 215 215 218 217 216 215 220 224 224 225 224 228 231 234 234 235 238 241 245 247 249 251 252 253 254 255 256 258 259 261 262 263 263 264 265 267 268 270 271 272 273 274
209 217 223 228 227 222 221 226 231 230 229 228 232 233 238 239 241 243 245 247 249 251 252 254 255 255 256 257 259 260 261 262 263 264 265 266 268 269 270 272 272 273 274
201 216 226 231 231 230 234 235 235 234 234 233 238 241 242 245 246 247 247 249 251 251 252 255 258 258 259 260 261 261 262 264 265 266 267 268 268 268 269 270 271 272 275
188 208 223 231 233 235 238 241 241 243 244 243 245 251 252 252 251 252 252 252 252 253 255 257 259 260 262 263 264 264 264 264 265 265 266 266 265 266 266 268 270 270 271
189 211 220 225 231 239 243 246 249 249 254 254 256 259 259 259 258 257 256 256 256 257 259 261 262 263 264 264 264 264 264 264 265 264 264 264 265 265 265 266 267 268 269
198 206 214 223 232 237 244 250 254 260 263 264 265 267 268 266 264 262 262 262 261 261 262 264 265 266 266 266 266 265 265 263 263 264 265 266 265 265 265 266 266 267 267
215 213 213 220 230 242 252 259 262 266 268 270 271 273 273 270 268 267 268 269 267 265 264 266 266 266 266 266 266 266 264 262 263 264 264 264 264 264 265 265 266 266 267
250 248 243 243 245 252 258 267 272 273 273 274 276 276 275 273 274 273 274 273 271 269 267 267 266 266 266 266 265 265 264 263 262 263 263 263 263 264 264 264 264 265 267
273 272 268 269 271 271 272 276 281 281 281 281 280 279 276 277 278 278 279 277 275 273 271 270 271 271 269 268 266 265 265 264 263 264 263 262 262 263 261 262 264 264 265
285 281 277 276 276 279 280 284 286 286 286 285 284 283 281 281 281 279 278 278 277 276 275 275 275 275 274 271 269 267 265 264 264 263 262 262 263 263 261 262 263 264 265
280 279 279 277 279 279 281 280 283 286 285 286 284 282 282 283 281 279 278 277 277 276 276 276 275 274 272 270 267 267 265 263 263 262 262 261 261 262 262 263 263 263 264
288 287 287 286 286 285 284 283 284 286 286 285 283 282 282 281 281 280 279 278 278 277 277 276 276 274 272 271 269 267 265 264 262 261 261 261 259 261 262 263 263 262 264
294 293 293 293 290 289 288 287 287 286 285 284 283 282 282 280 280 279 278 278 278 277 277 276 274 273 272 272 271 270 268 267 263 261 261 261 261 261 262 263 264 264 266
294 295 296 296 295 292 290 290 289 287 285 285 285 285 284 282 281 280 279 279 278 277 275 273 273 274 273 271 270 269 267 266 264 262 261 261 262 262 262 264 264 265 266
297 296 298 298 298 296 293 291 291 289 286 286 285 285 284 284 284 282 281 280 279 278 275 273 273 274 273 271 269 267 266 264 263 262 262 261 262 262 263 263 263 263 265
301 301 302 302 301 300 297 293 291 290 287 287 286 286 285 284 284 283 283 282 280 278 276 275 274 274 273 271 269 267 265 264 263 263 261 261 261 262 264 264 264 264 264
303 303 305 306 305 303 301 296 293 291 289 288 287 285 284 284 284 283 284 282 280 279 277 276 275 273 272 270 268 267 266 265 263 262 261 260 262 263 264 265 265 265 265
305 305 306 307 306 305 303 299 295 292 290 289 288 286 285 284 283 282 282 281 280 279 279 278 276 274 271 269 267 266 265 264 263 262 261 260 261 262 262 263 264 265 265
307 306 307 307 306 305 304 301 298 294 291 290 288 286 285 284 283 282 282 281 281 280 279 277 275 273 270 268 266 266 264 263 262 261 260 260 261 262 262 262 263 265 266
311 309 308 308 308 307 305 303 301 298 293 290 289 287 286 285 283 282 281 280 280 281 279 277 275 272 270 267 266 265 263 260 260 259 259 260 261 263 263 263 263 264 265